Impacts METAR Board INFO
IDs:

KCLT - Charlotte/Douglas In, NC, US

Updated at: 0528 UTC 13 Dec 2017
Potential Impact None Slight Moderate High
Time12/17Z 12/18Z 12/19Z 12/20Z 12/21Z 12/22Z 12/23Z 13/00Z 13/01Z 13/02Z 13/03Z 13/04Z 13/05Z
VIS10 10 10 10 10 10 10 10 10 10 10 10 10
CIG-- 250 -- 60 -- -- -- -- -- -- -- -- --
CoverSCTBKNSCTBKNSCTSCTFEWFEWCLRCLRCLRCLRCLR
FltCatVFRVFRVFRVFRVFRVFRVFRVFRVFRVFRVFRVFRVFR
WX--------------------------
WDir310320300290270290320310340310320310310
WSpd15 15 16 10 10 19 15 12 7 14 6 9 3
WGst23 28 25 -- 21 26 25 17 -- 24 -- -- --
Raw hourly METARs
KCLT 121652Z 31015G23KT 10SM FEW050 SCT140 SCT170 12/M01 A2971 RMK AO2 SLP061 T01221006
KCLT 121752Z 32015G28KT 10SM SCT055 SCT140 BKN250 12/M02 A2971 RMK AO2 PK WND 33028/1745 SLP060 T01221022 10122 20050 56010
KCLT 121852Z 30016G25KT 10SM SCT055 SCT160 12/M03 A2970 RMK AO2 PK WND 29028/1800 SLP055 T01171033
KCLT 121952Z 29010KT 10SM BKN060 12/M02 A2968 RMK AO2 SLP048 T01221022
KCLT 122052Z 27010G21KT 10SM SCT060 12/M04 A2969 RMK AO2 SLP052 T01171044 55008
KCLT 122152Z 29019G26KT 10SM SCT065 10/M06 A2971 RMK AO2 PK WND 29027/2139 SLP062 T01001056
KCLT 122252Z 32015G25KT 10SM FEW065 07/M08 A2976 RMK AO2 PK WND 30028/2217 SLP078 T00671078
KCLT 122352Z 31012G17KT 10SM FEW065 05/M08 A2980 RMK AO2 PK WND 30026/2319 SLP092 T00501083 10122 20050 53038
KCLT 130052Z 34007KT 10SM CLR 03/M08 A2982 RMK AO2 SLP100 T00331078
KCLT 130152Z 31014G24KT 10SM CLR 03/M09 A2983 RMK AO2 SLP103 T00331094
KCLT 130252Z 32006KT 10SM CLR 02/M10 A2985 RMK AO2 SLP108 T00171100 51015
KCLT 130352Z 31009KT 10SM CLR 02/M12 A2985 RMK AO2 SLP108 T00171122
KCLT 130452Z 31003KT 10SM CLR 01/M15 A2986 RMK AO2 SLP113 T00061150 401220006